User: anonymous   Login
Location: Unspecified
(0.0000°N, 0.0000°E)
Time: 15:13:14
(UTC+00:00)
Language:

OAO 3 Copernicus - Orbit

View from above orbital plane
View from above orbital plane
View from above satellite
View from above satellite

Ground track
Ground track

The orbit data is extracted from the following two-line orbital elements,

1 06153U 72065A   18051.59178123  .00000013  00000-0  73284-5 0  9999
2 06153  35.0074  80.2030 0007310 293.3983 212.6194 14.57867224417156
Epoch (UTC): 20 February 2018 14:12:09
Eccentricity: 0.0007310
inclination: 35.0074°
perigee height: 695 km
apogee height: 705 km
right ascension of ascending node: 80.2030°
argument of perigee: 293.3983°
revolutions per day: 14.57867224
mean anomaly at epoch: 212.6194°
orbit number at epoch: 41715

The dashed part of the orbit path shows where the satellite is in the earth's shadow,  

DLR